Regional Weather Roundup
Issued by NWS

Home | Current Version | Previous Version | Graphics & Text | Print | Product List | Glossary On
Versions: 1 2 3 4 5 6 7 8 9 10 11 12 13 14 15 16 17 18 19 20 21 22 23 24 25 26 27 28 29 30 31 32 33 34 35 36 37 38 39 40 41 42 43 44 45 46 47 48 49 50
000
ASUS45 KCYS 292110
RWRWY

WYOMING REGIONAL WEATHER ROUNDUP
NATIONAL WEATHER SERVICE CHEYENNE WY
300 PM MDT FRI MAY 29 2015

NOTE:  "FAIR" INDICATES FEW OR NO CLOUDS BELOW 12,000 FEET
WITH NO SIGNIFICANT WEATHER AND/OR OBSTRUCTIONS TO VISIBILITY.

WYZ001-292200-
YELLOWSTONE NATIONAL PARK

CITY           SKY/WX    TMP DP  RH WIND       PRES   REMARKS
LK YELLOWSTONE   N/A     54  38  54 VRB3      30.32F
W YELLOWSTONE  NOT AVBL

$$
WYZ002>013-054>058-071-098>099-292200-
NORTHERN WYOMING

CITY           SKY/WX    TMP DP  RH WIND       PRES   REMARKS
JACKSON        SUNNY     63  37  39 S12       30.25F
CODY           PTSUNNY   59  48  67 NE5       30.24F
GREYBULL       PTSUNNY   70  41  34 N8        30.20F
WORLAND        FAIR      65  45  48 VRB5      30.23F
SHERIDAN       CLOUDY    51  46  83 SW3       30.29F
BUFFALO        CLOUDY    49  43  80 N8        30.32S
GILLETTE       FAIR      57  31  37 N8        30.28S
HULETT         FAIR      54  37  54 NE8       30.30S
NEWCASTLE      FAIR      54  37  54 NW20G26   30.25S

$$
WYZ014>020-022>026-101>103-292200-
CENTRAL WYOMING

CITY           SKY/WX    TMP DP  RH WIND       PRES   REMARKS
BIG PINEY      PTSUNNY   58  36  43 S3        30.30F
PINEDALE       FAIR      59  36  41 S3        30.31F
DUBOIS         CLOUDY    55  37  50 SE13G20   30.29S
LANDER         CLOUDY    58  45  62 E7        30.27F
RIVERTON       FAIR      59  45  59 E9        30.28F
CASPER         CLOUDY    50  43  77 N9        30.31F
DOUGLAS        LGT RAIN  52  48  86 N14       30.30S

$$
WYZ021-027>030-104>119-292200-
SOUTHERN WYOMING

CITY           SKY/WX    TMP DP  RH WIND       PRES   REMARKS
EVANSTON       FAIR      63  36  36 VRB5      30.29F
KEMMERER       FAIR      59  34  38 CALM      30.31F
FORT BRIDGER   PTCLDY    59  41  51 E3        30.33S
ROCK SPRINGS   FAIR      59  41  51 NE9G16    30.30F
DIXON          LGT RAIN  53  44  71 NW5       30.33R
RAWLINS        CLOUDY    55  39  54 NE7       30.31F
SARATOGA       FAIR      55  41  58 N13       30.32S
LARAMIE        PTSUNNY   53  38  56 N16G25    30.29S
CHEYENNE       PTSUNNY   55  42  61 N21G33    30.25S
TORRINGTON     LGT RAIN  52  49  89 NE10      30.25R FOG
PINE BLUFFS    CLOUDY    52  46  82 N20       30.25R

$$



USA.gov is the U.S. government's official web portal to all federal, state and local government web resources and services.